Starlink 35192

operational
NORAD ID: 65933 Int'l Des: 2025-225 Owner: SPXS Country: US Constellation: starlink
NOTLE

About Starlink 35192

Description loading...

Live Position

Loading 3D Globe...

Upcoming Passes

Altitude History

Altitude vs Time

uPlot chart will show altitude changes over time

Two-Line Element Set

1 65933U 25225Z 25340.94036554 .00039251 00000-0 13305-2 0 9996
2 65933 53.1584 236.7771 0001221 81.7218 278.3921 15.30197651 10203
Epoch: Dec 6, 2025 • Age: 14 hours

Current Status

Altitude 476.8 km
Velocity 7.63 km/s
Sub-Earth Point -5.21°S, 36.11°W
Launch Date Oct 8, 2025
Age 0.1 years
Type internet

Technical Details

Classification Payload
Mass 575.00 kg
Dry Mass 530.00 kg
Total Mass 575.00 kg
Length 0.30 m
Diameter 4.10 m
Span 29.00 m
Shape Box + pan
Manufacturer SPXS
Bus Type Starlink V2MO
Phase Status In Orbit
Owner/State SPXS/US

Large Constellations

Loading constellations...